Regional Weather Roundup
Issued by NWS

Home | Current Version | Previous Version | Text Only | Print | Product List | Glossary Off
Versions: 1 2 3 4 5 6 7 8 9 10 11 12 13 14 15 16 17 18 19 20 21 22 23 24 25 26 27 28 29 30 31 32 33 34 35 36 37 38 39 40 41 42 43 44 45 46 47 48 49 50

000
ASUS43 KMPX 220301
RWRMN
WEATHER ROUNDUP FOR MINNESOTA
NATIONAL WEATHER SERVICE TWIN CITIES/CHANHASSEN MN
1000 PM CDT WED JUN 21 2017


NOTE: "FAIR" INDICATES FEW OR NO CLOUDS BELOW 12,000 FEET WITH NO
SIGNIFICANT WEATHER AND/OR OBSTRUCTIONS TO VISIBILITY. N/A MEANS
CURRENT SKY AND/OR WEATHER CONDITIONS ARE NOT AVAILABLE.

MNZ060>063-068>070-220400-
   Twin Cities Metro

CITY           SKY/WX    TMP DP  RH WIND       PRES   REMARKS
TWIN CITIES    CLOUDY    74  61  63 SE10      29.72F
ST PAUL        CLOUDY    73  62  68 SE13      29.72F
CRYSTAL        PTCLDY    74  59  59 S9        29.71R
BLAINE         CLOUDY    75  63  64 S6        29.73R
LAKEVILLE      PTCLDY    72  63  73 SE5       29.73S
EDEN PRAIRIE   CLOUDY    72  62  71 SE7       29.72R
SOUTH ST PAUL  CLOUDY    73  60  64 SE7       29.73S
LAKE ELMO      FAIR      72  61  68 SE12      29.74F
$$
MNZ001>005-007-008-013>017-022>024-027-028-220400-
   Northwest Minnesota

CITY           SKY/WX    TMP DP  RH WIND       PRES   REMARKS
BEMIDJI        CLOUDY    63  62  97 SE5       29.66R
HALLOCK        CLEAR     66  52  59 NW10G16   29.64R
ROSEAU         CLEAR     68  61  77 W10       29.60R
WARROAD        CLEAR     63  59  88 S5        29.59S
CROOKSTON      CLEAR     64  54  68 NW7       29.67R
FOSSTON        CLEAR     66  59  77 NW9       29.67R
DETROIT LAKES  CLOUDY    70  63  78 SW8       29.69R
MOORHEAD       PTCLDY    75  55  50 NW13      29.68R
PARK RAPIDS    LGT RAIN  73  60  63 SW14      29.66R
MAHNOMEN       MOCLDY    68  65  90 W8        29.67R
$$
MNZ006-009>011-018-025>026-220400-
   North Central Minnesota

CITY           SKY/WX    TMP DP  RH WIND       PRES   REMARKS
BAUDETTE       PTCLDY    62  57  83 S3        29.61R
FLAG ISLAND    MOCLDY    61  57  88 N18       29.61R
INTL FALLS     PTCLDY    59  55  87 SE7       29.63F
WASKISH        PTCLDY    61  59  94 SE5       29.62F
BIG FORK       TSTM      63  59  88 SE6       29.66S
LONGVILLE      MOCLDY    68  57  68 S7        29.66R
GRAND RAPIDS   CLOUDY    69  56  62 SE9       29.69S
CRANE LAKE     RAIN      57  55  94 SE5       29.69F
ORR            CLOUDY    59  54  82 SE7       29.66S
COOK           CLOUDY    61  55  82 E5        29.71S
WALKER         MOCLDY    69  59  69 SW8       29.66R
$$
MNZ012-019>021-037-220400-
   Northeast Minnesota

CITY           SKY/WX    TMP DP  RH WIND       PRES   REMARKS
DULUTH         MOCLDY    58  49  72 E10       29.73F
ELY            CLOUDY    57  46  67 SE9       29.73F
HIBBING        CLOUDY    58  54  86 SE3       29.71S
EVELETH        CLOUDY    59  46  61 CALM      29.75R
DULUTH HARBOR  MOCLDY    57  52  82 NE12      29.74S
TWO HARBORS    MOCLDY    61  48  63 NE5       29.74S
SILVER BAY     PTCLDY    57  48  72 NE3       29.75F
GRAND MARAIS     N/A     50  47  89 NE6       29.77F
G MARAIS ARPRT MOCLDY    54  45  71 E7        29.80F
$$
MNZ029>031-032-039>041-046>048-054>057-064-220400-
   West Central Minnesota

CITY           SKY/WX    TMP DP  RH WIND       PRES   REMARKS
FERGUS FALLS   CLOUDY    72  70  94 SW6       29.65R
WHEATON        CLOUDY    68  64  88 CALM      29.68R
MORRIS         CLOUDY    72  64  78 S3        29.68S
ALEXANDRIA     CLOUDY    70  66  87 S9        29.71F
ELBOW LAKE     FAIR      70  67  88 S6        29.69R
WADENA         PTCLDY    70  63  78 S9        29.67S
GLENWOOD       RAIN      70  66  88 E7        29.75R
APPLETON       LGT RAIN  75  66  73 CALM      29.69R
BENSON         LGT RAIN  75  64  69 S6        29.71R
ORTONVILLE     CLOUDY    75  66  73 CALM      29.66F
MADISON        CLOUDY    81  66  61 CALM      29.69R
WILLMAR        FAIR      75  64  69 SE7       29.71R
$$
MNZ033>034-036-042>043-049>051-058-059-220400-
   Central Minnesota

CITY           SKY/WX    TMP DP  RH WIND       PRES   REMARKS
ST CLOUD       LGT RAIN  72  63  73 NE5       29.74R
SAUK CENTRE    RAIN      71  65  81 NE3       29.76R
PAYNESVILLE    CLOUDY    74  62  66 E3        29.74R
AITKIN         MOCLDY    70  57  64 S8        29.67R
PINE RIVER     TSTM      72  63  73 S15       29.72R
BRAINERD       CLOUDY    70  60  70 S14       29.68R
STAPLES        CLOUDY    70  61  73 S8        29.69R
LONG PRAIRIE   LGT RAIN  68  64  88 SE22      29.69F
LITTLE FALLS   CLOUDY    70  61  73 S8        29.72R
BUFFALO        CLOUDY    73  61  65 SE6       29.73R
MAPLE LAKE     CLOUDY    74  64  73 S3        29.73R
HUTCHINSON     CLEAR     73  65  77 E5        29.73R
$$
MNZ037-044-045-052-053-220400-
   East Central Minnesota

CITY           SKY/WX    TMP DP  RH WIND       PRES   REMARKS
PRINCETON      CLOUDY    73  61  64 CALM      29.75R
MORA           CLOUDY    68  55  64 CALM      29.76R
CAMBRIDGE      CLOUDY    73  59  60 CALM      29.74R
RUSH CITY      CLOUDY    70  59  68 CALM      29.76R
MOOSE LAKE     CLOUDY    70  54  56 S3        29.70F
HINCKLEY       FAIR      70  57  64 SE8       29.73S
CLOQUET        CLOUDY    61  46  59 SE5       29.72F
MCGREGOR       CLOUDY    68  55  64 SE7       29.70R
$$
MNZ071>073-080-081-089-090-097-098-220400-
   Southwest Minnesota

CITY           SKY/WX    TMP DP  RH WIND       PRES   REMARKS
MONTEVIDEO     CLOUDY    75  66  73 S5        29.69R
GRANITE FALLS  CLOUDY    78  67  69 E3        29.70R
CANBY          CLOUDY    78  67  69 CALM      29.70R
MARSHALL       PTCLDY    78  69  73 SE6       29.70R
REDWOOD FALLS  CLOUDY    76  65  68 SE8       29.69R
OLIVIA         CLOUDY    73  64  73 SE7       29.70R
PIPESTONE      CLEAR     79  68  69 SE5       29.69R
WINDOM         CLEAR     73  66  78 SE7       29.70R
WORTHINGTON    CLEAR     73  69  87 E8        29.69S
JACKSON        PTCLDY    72  68  88 CALM      29.71S
TRACY          PTCLDY    76  69  79 SE8       29.69R
SLAYTON        CLEAR     74  63  67 SE12      29.69S
$$
MNZ065>067-074>077-082>085-091>093-220400-
   South Central Minnesota

CITY           SKY/WX    TMP DP  RH WIND       PRES   REMARKS
MANKATO        CLEAR     72  64  76 SE13      29.72R
NEW ULM        CLEAR     73  64  73 SE8       29.70R
ST JAMES       CLEAR     73  66  78 E7        29.71S
FAIRMONT       CLOUDY    72  68  87 SE8       29.70F
GLENCOE        PTCLDY    73  66  76 SE6       29.72R
FARIBAULT      MOCLDY    72  63  73 SE9       29.74S
OWATONNA       CLEAR     72  63  73 SE9       29.75R
WASECA         CLEAR     70  61  73 SE9       29.75R
ALBERT LEA     CLOUDY    72  63  73 SE10      29.74F
$$
MNZ078>079-086>088-094>096-220400-
   Southeast Minnesota

CITY           SKY/WX    TMP DP  RH WIND       PRES   REMARKS
ROCHESTER      PTCLDY    68  62  81 SE12      29.78S
RED WING       CLOUDY    73  57  56 SE9       29.75R
STANTON        CLOUDY    74  61  64 S9        29.73R
DODGE CENTER   PTCLDY    68  61  77 SE7       29.77S
WINONA         CLOUDY    72  59  64 SE6       29.78F
AUSTIN         CLOUDY    70  63  78 SE9       29.76S
PRESTON        MOCLDY    68  60  74 SE7       29.80S
$$
ABBREVIATIONS USED IN REMARKS
   TC - TEMPERATURES IN CELSIUS
  WCI - WIND CHILL INDEX
   HX - HEAT INDEX
  VSB - VISIBILITY
$$




USA.gov is the U.S. government's official web portal to all federal, state and local government web resources and services.